STARLINK-32868, 62854

Orbit data source: Space-Track

STARLINK-32868, 62854 is a payload satellite owned by SpaceX/Seattle (US) in LEO that was launched on Sat, 01 Feb 2025 UTC via an FALCON 9 launch vehicle from the Air Force Western Test Range (AFWTR). Payload-class satellites include a variety of spacecraft equipped with specific instruments for various scientific and technological missions. These include communications satellites like Starlink; space stations such as the ISS; scientific satellites like the Hubble; Earth observation satellites from companies like Planet Labs, Umbra, and HawkEye 360; GPS; miniature CubeSats for education and research; and military/defense satellites.

Loading next visibility...
Identifier
62854, 2025-022A
Orbit
LEO
Country
Flag of USUS
Related business
Manufacturer
SpaceX/Seattle
Mission
Operational Commercial Communications
Bus & Motor
STARLINK V2M, Unknown motor
Mass
730 kg wet, ~700 kg dry
Launch date (UTC)
2025-02-01 (10 months ago)
Launch vehicle
FALCON 9
Launch site
Air Force Western Test Range (AFWTR)
Object type
Payload
Rocket body
Debris
Shape & HBR
Box + 2 Pan, 17.7 m
Radar Cross Section
33.884 m², Large (>1 m²)

Expand to show TLE details & history
Last TLE update: 11 hours ago

TLE from 11 hours ago
0 STARLINK-32868
1 62854U 25022A   25346.81222482  .00021671  00000-0  74178-3 0  9992
2 62854  53.1578 172.8078 0001020  99.8560 260.2556 15.30195138 49419
Epoch: 2025-12-12T19:29Z
TLE epoch observation values (Epoch: 2025-12-12T19:29:36.224Z)
Latitude
-0.00001°
Longitude
158.65838°
Altitude
476.247 km
Speed
7.629 km/s
True Right ascension
11h 31m 13s
True Declination
0° 00' 00"
Sunlit
Object was in daylight at epoch
Visualization orbit readout
Latitude
Unknown
Longitude
Unknown
Altitude
Unknown
Speed
Unknown
Apparent Right ascension
Unknown
Apparent Declination
Unknown
Sunlit
N/A
Visualization observer readout
Local Sidereal Time
05:21:40
Azimuth
Unknown
Elevation
Unknown
Doppler factor
Unknown
Orbital elements
Apogee altitude
476.185 km
Perigee altitude
474.787 km
Semi-major axis
6,853.623 km
Eccentricity
0.0001
Inclination
53.1578°
RAAN
172.8078°
Arg. of periapsis
99.856°
True anomaly
260.24408°
Mean anomaly
260.2556°
Eccentric anomaly
260.24984°
Mean motion
3.82528 °/min
Orbital period
94.11 mins
BSTAR
0.00074178
Loading maneuver chart data...
Computing Atmospheric mass density...
Loading historical data...
Loading historical data...
Loading historical data...
Loading historical data...
Loading historical data...
Loading historical data...
Loading historical data...

Documentation

Showing up to 5 results
|